Zurück zum Katalog

SL-23 R/B

LostMEO
NORAD 32782·ROCKET BODY·🇷🇺 Russia

Gestartet Apr 27, 2008 von Baikonur Cosmodrome

Loading…

Nächste Überflüge (nächste 24 Stunden)

TLE

VeraltetSource: Space-Track

Epoche: Aug 1, 2026, 13:15 UTC

1 32782U 08020B   26213.55253053 -.00000040  00000-0  00000+0 0  9998
2 32782  59.0617  30.4265 0034511 260.3181 303.2305  1.67952084112010

Verfolge SL-23 R/B in Echtzeit mit AllMySat

Download on the App Store